| time (UTC) | temp F | wind direction | speed MPH | gust MPH | rain 1hr in | rain 24hr in | rain mn in | humidity % | barometer mb |
| 20260510111312 | 51 | 128 | 3.0 | 11.0 | 0.00 | 0.04 | 0.04 | 98 | 1009.0 |
| 20260510110811 | 50 | 204 | 4.0 | 11.0 | 0.00 | 0.04 | 0.04 | 98 | 1009.1 |
| 20260510110322 | 48 | 17 | 1.0 | 5.0 | 0.00 | 0.04 | 0.04 | 98 | 1009.0 |
| 20260510105814 | 47 | 30 | 1.0 | 4.0 | 0.00 | 0.04 | 0.04 | 98 | 1008.7 |
| 20260510105307 | 46 | 91 | 1.0 | 3.0 | 0.00 | 0.04 | 0.04 | 97 | 1008.6 |
| 20260510104840 | 45 | 103 | 0.0 | 4.0 | 0.00 | 0.04 | 0.04 | 96 | 1008.3 |
| 20260510104330 | 45 | 125 | 2.0 | 4.0 | 0.00 | 0.04 | 0.04 | 95 | 1008.4 |
| 20260510103821 | 45 | 116 | 2.0 | 4.0 | 0.00 | 0.04 | 0.04 | 96 | 1008.5 |
| 20260510103314 | 45 | 314 | 0.0 | 0.0 | 0.00 | 0.04 | 0.04 | 96 | 1008.6 |
| 20260510102806 | 45 | 314 | 0.0 | 0.0 | 0.01 | 0.04 | 0.04 | 95 | 1008.6 |
| 20260510102339 | 45 | 317 | 0.0 | 2.0 | 0.01 | 0.04 | 0.04 | 96 | 1008.4 |
| 20260510101810 | 45 | 197 | 0.0 | 2.0 | 0.01 | 0.04 | 0.04 | 96 | 1008.1 |
| 20260510101303 | 45 | 197 | 1.0 | 3.0 | 0.01 | 0.04 | 0.04 | 95 | 1007.9 |
| 20260510100835 | 45 | 114 | 2.0 | 3.0 | 0.01 | 0.04 | 0.04 | 94 | 1007.7 |
| 20260510100326 | 45 | 114 | 1.0 | 3.0 | 0.01 | 0.04 | 0.04 | 94 | 1007.9 |
| 20260510095825 | 46 | 114 | 2.0 | 3.0 | 0.01 | 0.04 | 0.04 | 94 | 1008.1 |
| 20260510095317 | 46 | 129 | 2.0 | 3.0 | 0.01 | 0.04 | 0.04 | 95 | 1008.1 |
| 20260510094809 | 46 | 129 | 0.0 | 2.0 | 0.01 | 0.04 | 0.04 | 95 | 1008.2 |
| 20260510094303 | 46 | 129 | 1.0 | 3.0 | 0.01 | 0.04 | 0.04 | 94 | 1008.1 |
| 20260510093817 | 47 | 129 | 2.0 | 3.0 | 0.01 | 0.04 | 0.04 | 94 | 1008.0 |
| 20260510093308 | 47 | 149 | 2.0 | 3.0 | 0.01 | 0.04 | 0.04 | 95 | 1008.0 |
| 20260510092820 | 47 | 168 | 1.0 | 2.0 | 0.00 | 0.03 | 0.03 | 94 | 1008.0 |
| 20260510092312 | 47 | 286 | 0.0 | 2.0 | 0.00 | 0.03 | 0.03 | 95 | 1007.8 |
| 20260510091804 | 48 | 286 | 1.0 | 3.0 | 0.00 | 0.03 | 0.03 | 95 | 1007.8 |
| 20260510091316 | 48 | 286 | 0.0 | 6.0 | 0.00 | 0.03 | 0.03 | 94 | 1007.7 |
| 20260510090808 | 48 | 262 | 1.0 | 6.0 | 0.00 | 0.03 | 0.03 | 94 | 1007.6 |
| 20260510090320 | 48 | 225 | 1.0 | 3.0 | 0.00 | 0.03 | 0.03 | 94 | 1007.4 |
| 20260510085812 | 49 | 166 | 1.0 | 3.0 | 0.00 | 0.03 | 0.03 | 94 | 1007.3 |
| 20260510085306 | 49 | 196 | 1.0 | 4.0 | 0.00 | 0.03 | 0.03 | 94 | 1007.4 |
| 20260510084839 | 49 | 160 | 1.0 | 4.0 | 0.00 | 0.03 | 0.03 | 94 | 1007.4 |
| 20260510084310 | 49 | 158 | 1.0 | 4.0 | 0.00 | 0.03 | 0.03 | 94 | 1007.4 |
| 20260510083818 | 49 | 243 | 1.0 | 4.0 | 0.00 | 0.03 | 0.03 | 94 | 1007.6 |
| 20260510083318 | 50 | 168 | 1.0 | 5.0 | 0.00 | 0.03 | 0.03 | 94 | 1007.7 |
| 20260510082813 | 50 | 278 | 1.0 | 5.0 | 0.00 | 0.03 | 0.03 | 94 | 1007.7 |
| 20260510082307 | 50 | 249 | 1.0 | 5.0 | 0.01 | 0.03 | 0.03 | 94 | 1007.4 |
| 20260510081819 | 50 | 216 | 1.0 | 5.0 | 0.01 | 0.03 | 0.03 | 94 | 1007.7 |
| 20260510081318 | 50 | 131 | 2.0 | 4.0 | 0.01 | 0.03 | 0.03 | 94 | 1007.9 |
| 20260510080811 | 50 | 149 | 2.0 | 5.0 | 0.02 | 0.03 | 0.03 | 94 | 1007.9 |
| 20260510080304 | 50 | 112 | 2.0 | 8.0 | 0.03 | 0.03 | 0.03 | 94 | 1007.9 |
| 20260510075837 | 50 | 264 | 2.0 | 8.0 | 0.03 | 0.03 | 0.03 | 94 | 1007.9 |
| 20260510075315 | 50 | 118 | 1.0 | 4.0 | 0.03 | 0.03 | 0.03 | 94 | 1007.8 |
| 20260510074806 | 49 | 209 | 1.0 | 5.0 | 0.03 | 0.03 | 0.03 | 94 | 1008.0 |
| 20260510074318 | 49 | 189 | 2.0 | 5.0 | 0.03 | 0.03 | 0.03 | 94 | 1008.1 |
| 20260510073811 | 49 | 259 | 2.0 | 4.0 | 0.03 | 0.03 | 0.03 | 93 | 1008.2 |
| 20260510073303 | 49 | 235 | 1.0 | 4.0 | 0.03 | 0.03 | 0.03 | 93 | 1008.1 |
| 20260510072817 | 50 | 156 | 2.0 | 5.0 | 0.03 | 0.03 | 0.03 | 93 | 1008.1 |
| 20260510072309 | 50 | 180 | 1.0 | 5.0 | 0.02 | 0.02 | 0.02 | 93 | 1008.3 |
| 20260510071821 | 50 | 263 | 2.0 | 3.0 | 0.02 | 0.02 | 0.02 | 93 | 1008.3 |
| 20260510071313 | 50 | 263 | 2.0 | 3.0 | 0.02 | 0.02 | 0.02 | 92 | 1008.3 |
| 20260510070833 | 50 | 233 | 1.0 | 5.0 | 0.01 | 0.01 | 0.01 | 91 | 1008.3 |
| 20260510070305 | 50 | 199 | 3.0 | 5.0 | 0.00 | 0.00 | 0.00 | 90 | 1008.3 |
| 20260510065816 | 50 | 266 | 1.0 | 6.0 | 0.00 | 0.00 | 0.00 | 89 | 1008.3 |
| 20260510065309 | 51 | 265 | 0.0 | 6.0 | 0.00 | 0.00 | 0.00 | 88 | 1008.3 |
| 20260510064829 | 50 | 305 | 1.0 | 4.0 | 0.00 | 0.00 | 0.00 | 87 | 1008.3 |
| 20260510064306 | 50 | 303 | 1.0 | 4.0 | 0.00 | 0.00 | 0.00 | 87 | 1008.2 |
| 20260510063819 | 50 | 286 | 2.0 | 4.0 | 0.00 | 0.00 | 0.00 | 87 | 1008.1 |
| 20260510063311 | 50 | 234 | 0.0 | 7.0 | 0.00 | 0.00 | 0.00 | 87 | 1007.9 |
| 20260510062803 | 50 | 259 | 1.0 | 7.0 | 0.00 | 0.00 | 0.00 | 87 | 1007.8 |
| 20260510062317 | 50 | 104 | 2.0 | 5.0 | 0.00 | 0.00 | 0.00 | 88 | 1007.7 |
| 20260510061809 | 50 | 218 | 2.0 | 5.0 | 0.00 | 0.00 | 0.00 | 87 | 1007.7 |
| 20260510061323 | 50 | 274 | 1.0 | 4.0 | 0.00 | 0.00 | 0.00 | 87 | 1007.5 |
| 20260510060815 | 50 | 91 | 1.0 | 3.0 | 0.00 | 0.00 | 0.00 | 87 | 1007.5 |
| 20260510060312 | 50 | 126 | 1.0 | 4.0 | 0.00 | 0.00 | 0.00 | 86 | 1007.8 |
| 20260510055840 | 50 | 277 | 3.0 | 4.0 | 0.00 | 0.00 | 0.00 | 87 | 1007.8 |
| 20260510055331 | 50 | 154 | 2.0 | 4.0 | 0.00 | 0.00 | 0.00 | 87 | 1007.8 |
| 20260510054805 | 50 | 41 | 2.0 | 4.0 | 0.00 | 0.00 | 0.00 | 87 | 1007.7 |
| 20260510054335 | 50 | 8 | 2.0 | 7.0 | 0.00 | 0.00 | 0.00 | 87 | 1007.6 |
| 20260510053811 | 50 | 155 | 2.0 | 7.0 | 0.00 | 0.00 | 0.00 | 87 | 1007.7 |
| 20260510053322 | 49 | 64 | 2.0 | 5.0 | 0.00 | 0.00 | 0.00 | 87 | 1007.8 |
| 20260510052814 | 49 | 244 | 1.0 | 6.0 | 0.00 | 0.00 | 0.00 | 88 | 1007.9 |
| 20260510052315 | 49 | 70 | 2.0 | 6.0 | 0.00 | 0.00 | 0.00 | 87 | 1007.7 |
| 20260510051827 | 49 | 303 | 1.0 | 3.0 | 0.00 | 0.00 | 0.00 | 87 | 1007.7 |
| 20260510051314 | 49 | 247 | 1.0 | 4.0 | 0.00 | 0.00 | 0.00 | 87 | 1007.7 |
| 20260510050808 | 49 | 308 | 1.0 | 4.0 | 0.00 | 0.00 | 0.00 | 87 | 1007.6 |
| 20260510050319 | 49 | 111 | 1.0 | 7.0 | 0.00 | 0.00 | 0.00 | 87 | 1007.7 |
| 20260510045832 | 49 | 133 | 3.0 | 7.0 | 0.00 | 0.00 | 0.00 | 87 | 1007.8 |
| 20260510045310 | 49 | 114 | 2.0 | 6.0 | 0.00 | 0.00 | 0.00 | 87 | 1007.8 |
| 20260510044838 | 49 | 45 | 1.0 | 7.0 | 0.00 | 0.00 | 0.00 | 87 | 1007.8 |
| 20260510044314 | 49 | 104 | 2.0 | 8.0 | 0.00 | 0.00 | 0.00 | 87 | 1007.8 |
| 20260510043808 | 49 | 123 | 2.0 | 5.0 | 0.00 | 0.00 | 0.00 | 87 | 1007.9 |
| 20260510043305 | 49 | 131 | 3.0 | 5.0 | 0.00 | 0.00 | 0.00 | 87 | 1007.9 |
| 20260510042817 | 49 | 104 | 2.0 | 8.0 | 0.00 | 0.00 | 0.00 | 87 | 1007.8 |
| 20260510042315 | 49 | 235 | 3.0 | 9.0 | 0.00 | 0.00 | 0.00 | 87 | 1007.6 |
| 20260510041811 | 49 | 107 | 3.0 | 9.0 | 0.00 | 0.00 | 0.00 | 87 | 1007.7 |
| 20260510041323 | 49 | 44 | 4.0 | 12.0 | 0.00 | 0.00 | 0.00 | 86 | 1007.6 |
| 20260510040835 | 49 | 94 | 2.0 | 12.0 | 0.00 | 0.00 | 0.00 | 87 | 1007.4 |
| 20260510040307 | 49 | 130 | 3.0 | 13.0 | 0.00 | 0.00 | 0.00 | 86 | 1007.4 |
| 20260510035820 | 49 | 243 | 5.0 | 13.0 | 0.00 | 0.00 | 0.00 | 86 | 1007.4 |
| 20260510035333 | 49 | 99 | 4.0 | 8.0 | 0.00 | 0.00 | 0.00 | 86 | 1007.4 |
| 20260510034806 | 49 | 72 | 1.0 | 8.0 | 0.00 | 0.00 | 0.00 | 87 | 1007.5 |
| 20260510034318 | 49 | 260 | 2.0 | 7.0 | 0.00 | 0.00 | 0.00 | 86 | 1007.6 |
| 20260510033810 | 49 | 64 | 3.0 | 11.0 | 0.00 | 0.00 | 0.00 | 86 | 1007.7 |
| 20260510033322 | 49 | 45 | 3.0 | 11.0 | 0.00 | 0.00 | 0.00 | 86 | 1007.8 |
| 20260510032815 | 50 | 58 | 2.0 | 10.0 | 0.00 | 0.00 | 0.00 | 86 | 1007.9 |
| 20260510032334 | 50 | 278 | 4.0 | 10.0 | 0.00 | 0.00 | 0.00 | 86 | 1007.9 |
| 20260510031806 | 50 | 191 | 2.0 | 11.0 | 0.00 | 0.00 | 0.00 | 86 | 1007.9 |
| 20260510031319 | 50 | 180 | 3.0 | 11.0 | 0.00 | 0.00 | 0.00 | 86 | 1007.8 |
| 20260510030811 | 50 | 114 | 5.0 | 10.0 | 0.00 | 0.00 | 0.00 | 86 | 1007.8 |
| 20260510030311 | 50 | 20 | 5.0 | 9.0 | 0.00 | 0.00 | 0.00 | 86 | 1007.8 |
| 20260510025823 | 50 | 130 | 3.0 | 10.0 | 0.00 | 0.00 | 0.00 | 86 | 1008.0 |
| 20260510025315 | 50 | 150 | 4.0 | 10.0 | 0.00 | 0.00 | 0.00 | 86 | 1007.8 |
| 20260510024837 | 50 | 70 | 4.0 | 12.0 | 0.00 | 0.00 | 0.00 | 86 | 1007.9 |
| 20260510024329 | 49 | 180 | 4.0 | 12.0 | 0.00 | 0.00 | 0.00 | 86 | 1007.9 |
| 20260510023821 | 49 | 42 | 3.0 | 13.0 | 0.00 | 0.00 | 0.00 | 86 | 1007.9 |
| 20260510023313 | 49 | 230 | 5.0 | 10.0 | 0.00 | 0.00 | 0.00 | 86 | 1007.9 |
| 20260510022805 | 49 | 83 | 3.0 | 9.0 | 0.00 | 0.00 | 0.00 | 86 | 1008.1 |
| 20260510022317 | 49 | 90 | 2.0 | 8.0 | 0.00 | 0.00 | 0.00 | 86 | 1008.0 |
| 20260510021811 | 49 | 68 | 3.0 | 9.0 | 0.00 | 0.00 | 0.00 | 86 | 1008.1 |
| 20260510021304 | 49 | 106 | 4.0 | 9.0 | 0.00 | 0.00 | 0.00 | 86 | 1008.0 |
| 20260510020816 | 49 | 86 | 4.0 | 10.0 | 0.00 | 0.00 | 0.00 | 86 | 1008.3 |
| 20260510020327 | 49 | 203 | 4.0 | 10.0 | 0.00 | 0.00 | 0.00 | 86 | 1008.2 |
| 20260510015818 | 49 | 96 | 4.0 | 10.0 | 0.00 | 0.00 | 0.00 | 86 | 1008.2 |
| 20260510015310 | 49 | 74 | 3.0 | 11.0 | 0.00 | 0.00 | 0.00 | 86 | 1008.3 |
| 20260510014823 | 49 | 45 | 3.0 | 17.0 | 0.00 | 0.00 | 0.00 | 86 | 1008.2 |
| 20260510014315 | 49 | 243 | 6.0 | 12.0 | 0.00 | 0.00 | 0.00 | 86 | 1008.1 |
| 20260510013816 | 49 | 102 | 3.0 | 11.0 | 0.00 | 0.00 | 0.00 | 86 | 1008.3 |
| 20260510013307 | 49 | 268 | 4.0 | 11.0 | 0.00 | 0.00 | 0.00 | 86 | 1008.4 |
| 20260510012819 | 49 | 73 | 3.0 | 16.0 | 0.00 | 0.00 | 0.00 | 85 | 1008.4 |
| 20260510012310 | 49 | 49 | 3.0 | 16.0 | 0.00 | 0.00 | 0.00 | 85 | 1008.4 |
| 20260510011805 | 49 | 114 | 3.0 | 11.0 | 0.00 | 0.00 | 0.00 | 85 | 1008.6 |
| 20260510011336 | 49 | 85 | 4.0 | 15.0 | 0.00 | 0.00 | 0.00 | 85 | 1008.5 |
| 20260510010808 | 49 | 113 | 6.0 | 13.0 | 0.00 | 0.00 | 0.00 | 85 | 1008.4 |
| 20260510010320 | 49 | 53 | 4.0 | 9.0 | 0.00 | 0.00 | 0.00 | 85 | 1008.5 |
| 20260510005813 | 49 | 61 | 2.0 | 4.0 | 0.00 | 0.00 | 0.00 | 85 | 1008.5 |
| 20260510005306 | 49 | 83 | 2.0 | 7.0 | 0.00 | 0.00 | 0.00 | 85 | 1008.5 |
| 20260510004818 | 49 | 49 | 1.0 | 9.0 | 0.00 | 0.00 | 0.00 | 84 | 1008.8 |
| 20260510004319 | 49 | 97 | 4.0 | 9.0 | 0.00 | 0.00 | 0.00 | 84 | 1008.5 |
| 20260510003811 | 49 | 97 | 2.0 | 8.0 | 0.00 | 0.00 | 0.00 | 84 | 1008.6 |
| 20260510003307 | 49 | 193 | 3.0 | 10.0 | 0.00 | 0.00 | 0.00 | 84 | 1008.7 |
| 20260510002836 | 49 | 42 | 2.0 | 10.0 | 0.00 | 0.00 | 0.00 | 84 | 1008.6 |
| 20260510002311 | 49 | 104 | 3.0 | 10.0 | 0.00 | 0.00 | 0.00 | 83 | 1008.6 |
| 20260510001823 | 49 | 254 | 5.0 | 10.0 | 0.00 | 0.00 | 0.00 | 83 | 1008.5 |
| 20260510001316 | 49 | 101 | 5.0 | 10.0 | 0.00 | 0.00 | 0.00 | 83 | 1008.5 |
| 20260510000816 | 49 | 78 | 4.0 | 10.0 | 0.00 | 0.00 | 0.00 | 83 | 1008.5 |
| 20260510000308 | 50 | 256 | 3.0 | 11.0 | 0.00 | 0.00 | 0.00 | 83 | 1008.4 |
| 20260509235821 | 50 | 25 | 3.0 | 11.0 | 0.00 | 0.00 | 0.00 | 83 | 1008.4 |
| 20260509235313 | 50 | 52 | 4.0 | 7.0 | 0.00 | 0.00 | 0.00 | 82 | 1008.4 |
| 20260509234805 | 50 | 137 | 3.0 | 9.0 | 0.00 | 0.00 | 0.00 | 83 | 1008.3 |
| 20260509234318 | 50 | 77 | 3.0 | 11.0 | 0.00 | 0.00 | 0.00 | 82 | 1008.4 |
| 20260509233810 | 50 | 293 | 3.0 | 11.0 | 0.00 | 0.00 | 0.00 | 82 | 1008.6 |
| 20260509233342 | 50 | 87 | 5.0 | 10.0 | 0.00 | 0.00 | 0.00 | 82 | 1008.5 |
| 20260509232813 | 50 | 83 | 3.0 | 10.0 | 0.00 | 0.00 | 0.00 | 82 | 1008.4 |
| 20260509232306 | 50 | 100 | 4.0 | 11.0 | 0.00 | 0.00 | 0.00 | 82 | 1008.4 |
| 20260509231817 | 50 | 126 | 7.0 | 11.0 | 0.00 | 0.00 | 0.00 | 81 | 1008.4 |
| 20260509231311 | 50 | 132 | 5.0 | 11.0 | 0.00 | 0.00 | 0.00 | 81 | 1008.4 |
| 20260509230823 | 50 | 97 | 6.0 | 11.0 | 0.00 | 0.00 | 0.00 | 81 | 1008.4 |
| 20260509230315 | 50 | 158 | 4.0 | 10.0 | 0.00 | 0.00 | 0.00 | 81 | 1008.4 |
| 20260509225808 | 50 | 78 | 3.0 | 10.0 | 0.00 | 0.00 | 0.00 | 81 | 1008.4 |
| 20260509225340 | 50 | 230 | 4.0 | 14.0 | 0.00 | 0.00 | 0.00 | 80 | 1008.4 |
| 20260509224811 | 50 | 256 | 4.0 | 14.0 | 0.00 | 0.00 | 0.00 | 81 | 1008.3 |
| 20260509224323 | 50 | 126 | 4.0 | 10.0 | 0.00 | 0.00 | 0.00 | 81 | 1008.5 |
| 20260509223838 | 50 | 66 | 2.0 | 9.0 | 0.00 | 0.00 | 0.00 | 81 | 1008.6 |
| 20260509223309 | 50 | 89 | 3.0 | 8.0 | 0.00 | 0.00 | 0.00 | 81 | 1008.6 |
| 20260509222821 | 50 | 115 | 3.0 | 9.0 | 0.00 | 0.00 | 0.00 | 80 | 1008.6 |
| 20260509222313 | 50 | 126 | 3.0 | 9.0 | 0.00 | 0.00 | 0.00 | 80 | 1008.7 |
| 20260509221806 | 50 | 164 | 3.0 | 11.0 | 0.00 | 0.00 | 0.00 | 79 | 1008.7 |
| 20260509221319 | 51 | 152 | 5.0 | 11.0 | 0.00 | 0.00 | 0.00 | 79 | 1008.7 |
| 20260509220812 | 51 | 87 | 5.0 | 10.0 | 0.00 | 0.00 | 0.00 | 79 | 1008.7 |
| 20260509220324 | 51 | 102 | 6.0 | 11.0 | 0.00 | 0.00 | 0.00 | 79 | 1008.6 |
| 20260509215817 | 51 | 118 | 4.0 | 11.0 | 0.00 | 0.00 | 0.00 | 79 | 1008.6 |
| 20260509215310 | 51 | 108 | 3.0 | 7.0 | 0.00 | 0.00 | 0.00 | 79 | 1008.6 |
| 20260509214807 | 51 | 131 | 3.0 | 10.0 | 0.00 | 0.00 | 0.00 | 79 | 1008.7 |
| 20260509214319 | 51 | 74 | 4.0 | 14.0 | 0.00 | 0.00 | 0.00 | 79 | 1008.8 |
| 20260509213812 | 51 | 255 | 6.0 | 14.0 | 0.00 | 0.00 | 0.00 | 80 | 1008.9 |
| 20260509213304 | 51 | 64 | 3.0 | 9.0 | 0.00 | 0.00 | 0.00 | 79 | 1008.9 |
| 20260509212817 | 51 | 150 | 3.0 | 14.0 | 0.00 | 0.00 | 0.00 | 80 | 1009.0 |
| 20260509212329 | 51 | 158 | 5.0 | 15.0 | 0.00 | 0.00 | 0.00 | 81 | 1009.0 |
| 20260509211820 | 50 | 125 | 5.0 | 13.0 | 0.00 | 0.00 | 0.00 | 81 | 1009.0 |
| 20260509211313 | 50 | 160 | 3.0 | 17.0 | 0.00 | 0.00 | 0.00 | 82 | 1009.0 |
| 20260509210805 | 50 | 101 | 4.0 | 17.0 | 0.00 | 0.00 | 0.00 | 82 | 1009.0 |
| 20260509210337 | 50 | 68 | 5.0 | 15.0 | 0.00 | 0.00 | 0.00 | 81 | 1009.1 |
| 20260509205809 | 50 | 123 | 7.0 | 12.0 | 0.00 | 0.00 | 0.00 | 81 | 1009.1 |
| 20260509205323 | 50 | 92 | 4.0 | 15.0 | 0.00 | 0.00 | 0.00 | 81 | 1009.2 |
| 20260509204815 | 50 | 92 | 7.0 | 17.0 | 0.00 | 0.00 | 0.00 | 80 | 1009.2 |
| 20260509204307 | 50 | 39 | 4.0 | 16.0 | 0.00 | 0.00 | 0.00 | 79 | 1009.1 |
| 20260509203819 | 50 | 136 | 5.0 | 10.0 | 0.00 | 0.00 | 0.00 | 79 | 1009.2 |
| 20260509203312 | 50 | 157 | 5.0 | 16.0 | 0.00 | 0.00 | 0.00 | 79 | 1009.2 |
| 20260509202805 | 50 | 126 | 8.0 | 16.0 | 0.00 | 0.00 | 0.00 | 79 | 1009.2 |
| 20260509202337 | 50 | 112 | 6.0 | 12.0 | 0.00 | 0.00 | 0.00 | 79 | 1009.3 |
| 20260509201810 | 50 | 108 | 5.0 | 14.0 | 0.00 | 0.00 | 0.00 | 78 | 1009.3 |
| 20260509201321 | 51 | 131 | 3.0 | 14.0 | 0.00 | 0.00 | 0.00 | 78 | 1009.3 |
| 20260509200821 | 51 | 102 | 4.0 | 12.0 | 0.00 | 0.00 | 0.00 | 77 | 1009.4 |
| 20260509200321 | 51 | 10 | 6.0 | 19.0 | 0.00 | 0.00 | 0.00 | 76 | 1009.3 |
| 20260509195834 | 52 | 116 | 7.0 | 19.0 | 0.00 | 0.00 | 0.00 | 76 | 1009.4 |
| 20260509195326 | 52 | 136 | 5.0 | 14.0 | 0.00 | 0.00 | 0.00 | 76 | 1009.4 |
| 20260509194837 | 52 | 95 | 7.0 | 13.0 | 0.00 | 0.00 | 0.00 | 75 | 1009.2 |
| 20260509194310 | 52 | 224 | 5.0 | 13.0 | 0.00 | 0.00 | 0.00 | 75 | 1009.3 |
| 20260509193821 | 52 | 112 | 7.0 | 20.0 | 0.00 | 0.00 | 0.00 | 75 | 1009.3 |
| 20260509193312 | 53 | 117 | 8.0 | 20.0 | 0.00 | 0.00 | 0.00 | 74 | 1009.3 |
| 20260509192806 | 52 | 101 | 6.0 | 18.0 | 0.00 | 0.00 | 0.00 | 74 | 1009.2 |
| 20260509192318 | 52 | 140 | 9.0 | 18.0 | 0.00 | 0.00 | 0.00 | 75 | 1009.4 |
| 20260509191809 | 52 | 77 | 8.0 | 16.0 | 0.00 | 0.00 | 0.00 | 75 | 1009.2 |
| 20260509191322 | 52 | 164 | 9.0 | 16.0 | 0.00 | 0.00 | 0.00 | 75 | 1009.3 |
| 20260509190816 | 51 | 116 | 9.0 | 15.0 | 0.00 | 0.00 | 0.00 | 76 | 1009.4 |
| 20260509190307 | 51 | 57 | 11.0 | 15.0 | 0.00 | 0.00 | 0.00 | 76 | 1009.5 |
| 20260509185819 | 51 | 129 | 6.0 | 12.0 | 0.00 | 0.00 | 0.00 | 76 | 1009.5 |
| 20260509185333 | 51 | 126 | 4.0 | 17.0 | 0.00 | 0.00 | 0.00 | 76 | 1009.6 |
| 20260509184804 | 51 | 89 | 9.0 | 17.0 | 0.00 | 0.00 | 0.00 | 75 | 1009.7 |
| 20260509184316 | 51 | 85 | 4.0 | 10.0 | 0.00 | 0.00 | 0.00 | 75 | 1009.9 |
| 20260509183813 | 51 | 108 | 5.0 | 16.0 | 0.00 | 0.00 | 0.00 | 75 | 1009.9 |
| 20260509183305 | 51 | 106 | 6.0 | 12.0 | 0.00 | 0.00 | 0.00 | 74 | 1010.0 |
| 20260509182818 | 51 | 96 | 6.0 | 15.0 | 0.00 | 0.00 | 0.00 | 74 | 1010.0 |
| 20260509182319 | 51 | 85 | 9.0 | 15.0 | 0.00 | 0.00 | 0.00 | 74 | 1009.9 |
| 20260509181831 | 51 | 89 | 5.0 | 12.0 | 0.00 | 0.00 | 0.00 | 73 | 1010.2 |
| 20260509181322 | 51 | 106 | 7.0 | 15.0 | 0.00 | 0.00 | 0.00 | 73 | 1010.1 |
| 20260509180814 | 51 | 129 | 7.0 | 16.0 | 0.00 | 0.00 | 0.00 | 71 | 1010.1 |
| 20260509180306 | 52 | 167 | 5.0 | 17.0 | 0.00 | 0.00 | 0.00 | 70 | 1010.3 |
| 20260509175818 | 52 | 158 | 8.0 | 19.0 | 0.00 | 0.00 | 0.00 | 69 | 1010.2 |
| 20260509175311 | 53 | 111 | 10.0 | 19.0 | 0.00 | 0.00 | 0.00 | 67 | 1010.1 |
| 20260509174804 | 54 | 95 | 6.0 | 15.0 | 0.00 | 0.00 | 0.00 | 64 | 1010.0 |
| 20260509174336 | 55 | 106 | 10.0 | 16.0 | 0.00 | 0.00 | 0.00 | 63 | 1009.9 |
| 20260509173827 | 55 | 180 | 8.0 | 16.0 | 0.00 | 0.00 | 0.00 | 61 | 1010.0 |
| 20260509173319 | 56 | 91 | 8.0 | 16.0 | 0.00 | 0.00 | 0.00 | 58 | 1010.0 |
| 20260509172820 | 57 | 84 | 4.0 | 12.0 | 0.00 | 0.00 | 0.00 | 56 | 1009.9 |
| 20260509172312 | 57 | 153 | 3.0 | 14.0 | 0.00 | 0.00 | 0.00 | 54 | 1009.9 |
| 20260509171804 | 57 | 150 | 7.0 | 14.0 | 0.00 | 0.00 | 0.00 | 53 | 1009.9 |
| 20260509171315 | 57 | 118 | 6.0 | 12.0 | 0.00 | 0.00 | 0.00 | 52 | 1009.9 |
| 20260509170808 | 57 | 74 | 3.0 | 15.0 | 0.00 | 0.00 | 0.00 | 49 | 1010.0 |
| 20260509170340 | 57 | 84 | 5.0 | 15.0 | 0.00 | 0.00 | 0.00 | 46 | 1009.9 |
| 20260509165811 | 58 | 116 | 5.0 | 12.0 | 0.00 | 0.00 | 0.00 | 45 | 1009.8 |
| 20260509165323 | 59 | 189 | 5.0 | 12.0 | 0.00 | 0.00 | 0.00 | 43 | 1009.9 |
| 20260509164815 | 60 | 185 | 4.0 | 14.0 | 0.00 | 0.00 | 0.00 | 41 | 1010.1 |
| 20260509164308 | 60 | 180 | 6.0 | 18.0 | 0.00 | 0.00 | 0.00 | 40 | 1010.0 |
| 20260509163821 | 60 | 98 | 6.0 | 18.0 | 0.00 | 0.00 | 0.00 | 45 | 1010.0 |
| 20260509163313 | 59 | 90 | 7.0 | 14.0 | 0.00 | 0.00 | 0.00 | 42 | 1010.1 |
| 20260509162806 | 58 | 78 | 7.0 | 13.0 | 0.00 | 0.00 | 0.00 | 41 | 1010.1 |
| 20260509162318 | 58 | 96 | 6.0 | 11.0 | 0.00 | 0.00 | 0.00 | 43 | 1010.3 |
| 20260509161810 | 59 | 218 | 3.0 | 9.0 | 0.00 | 0.00 | 0.00 | 40 | 1010.4 |
| 20260509161322 | 59 | 163 | 4.0 | 9.0 | 0.00 | 0.00 | 0.00 | 43 | 1010.4 |
| 20260509160815 | 59 | 95 | 4.0 | 10.0 | 0.00 | 0.00 | 0.00 | 42 | 1010.4 |
| 20260509160327 | 60 | 264 | 4.0 | 11.0 | 0.00 | 0.00 | 0.00 | 38 | 1010.4 |
| 20260509155818 | 60 | 258 | 5.0 | 11.0 | 0.00 | 0.00 | 0.00 | 38 | 1010.4 |
| 20260509155329 | 60 | 74 | 4.0 | 10.0 | 0.00 | 0.00 | 0.00 | 37 | 1010.5 |
| 20260509154821 | 59 | 99 | 4.0 | 9.0 | 0.00 | 0.00 | 0.00 | 36 | 1010.6 |
| 20260509154314 | 59 | 88 | 6.0 | 11.0 | 0.00 | 0.00 | 0.00 | 37 | 1010.7 |
| 20260509153810 | 59 | 185 | 4.0 | 11.0 | 0.00 | 0.00 | 0.00 | 38 | 1010.8 |
| 20260509153321 | 59 | 106 | 5.0 | 11.0 | 0.00 | 0.00 | 0.00 | 37 | 1010.8 |
| 20260509152813 | 60 | 98 | 5.0 | 11.0 | 0.00 | 0.00 | 0.00 | 38 | 1010.9 |
| 20260509152325 | 60 | 78 | 5.0 | 9.0 | 0.00 | 0.00 | 0.00 | 39 | 1010.8 |
| 20260509151817 | 60 | 127 | 4.0 | 10.0 | 0.00 | 0.00 | 0.00 | 38 | 1010.9 |
| 20260509151310 | 60 | 95 | 5.0 | 10.0 | 0.00 | 0.00 | 0.00 | 38 | 1010.9 |
| 20260509150822 | 60 | 89 | 4.0 | 11.0 | 0.00 | 0.00 | 0.00 | 38 | 1011.0 |
| 20260509150318 | 59 | 97 | 7.0 | 11.0 | 0.00 | 0.00 | 0.00 | 40 | 1011.0 |
| 20260509145810 | 59 | 104 | 3.0 | 9.0 | 0.00 | 0.00 | 0.00 | 39 | 1011.0 |
| 20260509145322 | 59 | 139 | 3.0 | 7.0 | 0.00 | 0.00 | 0.00 | 43 | 1011.0 |
| 20260509144835 | 58 | 77 | 3.0 | 9.0 | 0.00 | 0.00 | 0.00 | 44 | 1011.1 |
| 20260509144327 | 58 | 55 | 5.0 | 8.0 | 0.00 | 0.00 | 0.00 | 43 | 1011.0 |
| 20260509143817 | 57 | 237 | 3.0 | 8.0 | 0.00 | 0.00 | 0.00 | 38 | 1011.2 |
| 20260509143309 | 57 | 185 | 5.0 | 8.0 | 0.00 | 0.00 | 0.00 | 41 | 1011.2 |
| 20260509142821 | 57 | 70 | 6.0 | 8.0 | 0.00 | 0.00 | 0.00 | 42 | 1011.3 |
| 20260509142313 | 57 | 232 | 2.0 | 6.0 | 0.00 | 0.00 | 0.00 | 39 | 1011.3 |
| 20260509141805 | 57 | 85 | 4.0 | 10.0 | 0.00 | 0.00 | 0.00 | 40 | 1011.4 |
| 20260509141317 | 56 | 114 | 4.0 | 10.0 | 0.00 | 0.00 | 0.00 | 43 | 1011.4 |
| 20260509140809 | 56 | 57 | 4.0 | 10.0 | 0.00 | 0.00 | 0.00 | 45 | 1011.2 |
| 20260509140342 | 56 | 242 | 1.0 | 11.0 | 0.00 | 0.00 | 0.00 | 41 | 1011.3 |
| 20260509135814 | 56 | 66 | 3.0 | 8.0 | 0.00 | 0.00 | 0.00 | 44 | 1011.4 |
| 20260509135306 | 56 | 96 | 2.0 | 7.0 | 0.00 | 0.00 | 0.00 | 44 | 1011.3 |
| 20260509134818 | 55 | 170 | 1.0 | 8.0 | 0.00 | 0.00 | 0.00 | 43 | 1011.5 |
| 20260509134310 | 55 | 128 | 5.0 | 8.0 | 0.00 | 0.00 | 0.00 | 41 | 1011.5 |
| 20260509133823 | 55 | 256 | 4.0 | 9.0 | 0.00 | 0.00 | 0.00 | 41 | 1011.4 |
| 20260509133312 | 55 | 229 | 4.0 | 9.0 | 0.00 | 0.00 | 0.00 | 43 | 1011.4 |
| 20260509132825 | 55 | 226 | 2.0 | 10.0 | 0.00 | 0.00 | 0.00 | 41 | 1011.4 |
| 20260509132337 | 55 | 110 | 2.0 | 10.0 | 0.00 | 0.00 | 0.00 | 43 | 1011.5 |
| 20260509131809 | 54 | 292 | 2.0 | 10.0 | 0.00 | 0.00 | 0.00 | 42 | 1011.5 |
| 20260509131341 | 55 | 281 | 2.0 | 10.0 | 0.00 | 0.00 | 0.00 | 41 | 1011.6 |
| 20260509130832 | 55 | 262 | 3.0 | 9.0 | 0.00 | 0.00 | 0.00 | 43 | 1011.7 |
| 20260509130305 | 55 | 20 | 4.0 | 10.0 | 0.00 | 0.00 | 0.00 | 41 | 1011.7 |
| 20260509125836 | 55 | 256 | 4.0 | 10.0 | 0.00 | 0.00 | 0.00 | 44 | 1011.6 |
| 20260509125308 | 54 | 52 | 1.0 | 9.0 | 0.00 | 0.00 | 0.00 | 46 | 1011.6 |
| 20260509124821 | 54 | 227 | 5.0 | 9.0 | 0.00 | 0.00 | 0.00 | 45 | 1011.8 |
| 20260509124313 | 54 | 156 | 3.0 | 8.0 | 0.00 | 0.00 | 0.00 | 46 | 1011.8 |
| 20260509123805 | 53 | 94 | 1.0 | 7.0 | 0.00 | 0.00 | 0.00 | 48 | 1011.8 |
| 20260509123317 | 53 | 79 | 4.0 | 7.0 | 0.00 | 0.00 | 0.00 | 48 | 1011.8 |
| 20260509122811 | 52 | 86 | 3.0 | 7.0 | 0.00 | 0.00 | 0.00 | 55 | 1011.9 |
| 20260509122310 | 51 | 61 | 3.0 | 7.0 | 0.00 | 0.00 | 0.00 | 52 | 1012.0 |
| 20260509121823 | 50 | 151 | 1.0 | 5.0 | 0.00 | 0.00 | 0.00 | 61 | 1012.1 |
| 20260509121315 | 49 | 94 | 2.0 | 7.0 | 0.00 | 0.00 | 0.00 | 65 | 1011.9 |
| 20260509120808 | 48 | 129 | 2.0 | 7.0 | 0.00 | 0.00 | 0.00 | 72 | 1012.1 |
| 20260509120320 | 47 | 137 | 1.0 | 3.0 | 0.00 | 0.00 | 0.00 | 73 | 1012.1 |
| 20260509115813 | 46 | 84 | 1.0 | 3.0 | 0.00 | 0.00 | 0.00 | 76 | 1012.0 |
| 20260509115309 | 45 | 84 | 0.0 | 1.0 | 0.00 | 0.00 | 0.00 | 78 | 1012.1 |
| 20260509114838 | 45 | 84 | 0.0 | 2.0 | 0.00 | 0.00 | 0.00 | 81 | 1012.1 |
| 20260509114313 | 43 | 84 | 1.0 | 2.0 | 0.00 | 0.00 | 0.00 | 83 | 1012.0 |
| 20260509113827 | 42 | 84 | 0.0 | 2.0 | 0.00 | 0.00 | 0.00 | 84 | 1012.1 |
| 20260509113335 | 41 | 84 | 1.0 | 2.0 | 0.00 | 0.00 | 0.00 | 85 | 1012.1 |
| 20260509112811 | 40 | 127 | 1.0 | 2.0 | 0.00 | 0.00 | 0.00 | 87 | 1012.0 |
| 20260509112306 | 38 | 127 | 1.0 | 2.0 | 0.00 | 0.00 | 0.00 | 89 | 1012.0 |
| 20260509111815 | 37 | 127 | 1.0 | 2.0 | 0.00 | 0.00 | 0.00 | 90 | 1012.1 |